Year,Month,Day,Hour,Minute,Value (Times are PST for temperature in C)
2011,07,02,00,00,13.10
2011,07,02,00,01,13.10
2011,07,02,00,02,13.10
2011,07,02,00,03,13.10
2011,07,02,00,04,13.10
2011,07,02,00,05,13.00
2011,07,02,00,06,13.00
2011,07,02,00,07,13.00
2011,07,02,00,08,12.90
2011,07,02,00,09,12.90
2011,07,02,00,10,12.90
2011,07,02,00,11,12.80
2011,07,02,00,12,12.80
2011,07,02,00,13,12.80
2011,07,02,00,14,12.80
2011,07,02,00,15,12.80
2011,07,02,00,16,12.70
2011,07,02,00,17,12.70
2011,07,02,00,18,12.70
2011,07,02,00,19,12.60
2011,07,02,00,20,12.60
2011,07,02,00,21,12.60
2011,07,02,00,22,12.60
2011,07,02,00,23,12.60
2011,07,02,00,24,12.60
2011,07,02,00,25,12.60
2011,07,02,00,26,12.60
2011,07,02,00,27,12.60
2011,07,02,00,28,12.60
2011,07,02,00,29,12.60
2011,07,02,00,30,12.60
2011,07,02,00,31,12.60
2011,07,02,00,32,12.60
2011,07,02,00,33,12.50
2011,07,02,00,34,12.50
2011,07,02,00,35,12.50
2011,07,02,00,36,12.50
2011,07,02,00,37,12.50
2011,07,02,00,38,12.50
2011,07,02,00,39,12.50
2011,07,02,00,40,12.50
2011,07,02,00,41,12.50
2011,07,02,00,42,12.50
2011,07,02,00,43,12.50
2011,07,02,00,44,12.50
2011,07,02,00,45,12.40
2011,07,02,00,46,12.40
2011,07,02,00,47,12.40
2011,07,02,00,48,12.30
2011,07,02,00,49,12.30
2011,07,02,00,50,12.30
2011,07,02,00,51,12.30
2011,07,02,00,52,12.20
2011,07,02,00,53,12.20
2011,07,02,00,54,12.20
2011,07,02,00,55,12.10
2011,07,02,00,56,12.10
2011,07,02,00,57,12.10
2011,07,02,00,58,12.10
2011,07,02,00,59,12.10
2011,07,02,01,00,12.10
2011,07,02,01,01,12.10
2011,07,02,01,02,12.10
2011,07,02,01,03,12.00
2011,07,02,01,04,12.00
2011,07,02,01,05,12.00
2011,07,02,01,06,12.00
2011,07,02,01,07,12.00
2011,07,02,01,08,12.00
2011,07,02,01,09,11.90
2011,07,02,01,10,11.90
2011,07,02,01,11,11.90
2011,07,02,01,12,11.90
2011,07,02,01,13,11.80
2011,07,02,01,14,11.80
2011,07,02,01,15,11.80
2011,07,02,01,16,11.80
2011,07,02,01,17,11.80
2011,07,02,01,18,11.80
2011,07,02,01,19,11.80
2011,07,02,01,20,11.80
2011,07,02,01,21,11.80
2011,07,02,01,22,11.80
2011,07,02,01,23,11.80
2011,07,02,01,24,11.80
2011,07,02,01,25,11.80
2011,07,02,01,26,11.70
2011,07,02,01,27,11.70
2011,07,02,01,28,11.70
2011,07,02,01,29,11.70
2011,07,02,01,30,11.70
2011,07,02,01,31,11.70
2011,07,02,01,32,11.70
2011,07,02,01,33,11.70
2011,07,02,01,34,11.70
2011,07,02,01,35,11.70
2011,07,02,01,36,11.60
2011,07,02,01,37,11.60
2011,07,02,01,38,11.60
2011,07,02,01,39,11.60
2011,07,02,01,40,11.60
2011,07,02,01,41,11.60
2011,07,02,01,42,11.60
2011,07,02,01,43,11.60
2011,07,02,01,44,11.60
2011,07,02,01,45,11.60
2011,07,02,01,46,11.60
2011,07,02,01,47,11.60
2011,07,02,01,48,11.60
2011,07,02,01,49,11.50
2011,07,02,01,50,11.40
2011,07,02,01,51,11.40
2011,07,02,01,52,11.40
2011,07,02,01,53,11.40
2011,07,02,01,54,11.40
2011,07,02,01,55,11.40
2011,07,02,01,56,11.30
2011,07,02,01,57,11.30
2011,07,02,01,58,11.20
2011,07,02,01,59,11.20
2011,07,02,02,00,11.10
2011,07,02,02,01,11.10
2011,07,02,02,02,11.00
2011,07,02,02,03,10.90
2011,07,02,02,04,10.90
2011,07,02,02,05,10.90
2011,07,02,02,06,10.90
2011,07,02,02,07,10.80
2011,07,02,02,08,10.80
2011,07,02,02,09,10.80
2011,07,02,02,10,10.80
2011,07,02,02,11,10.70
2011,07,02,02,12,10.70
2011,07,02,02,13,10.70
2011,07,02,02,14,10.70
2011,07,02,02,15,10.70
2011,07,02,02,16,10.70
2011,07,02,02,17,10.70
2011,07,02,02,18,10.70
2011,07,02,02,19,10.70
2011,07,02,02,20,10.70
2011,07,02,02,21,10.70
2011,07,02,02,22,10.70
2011,07,02,02,23,10.70
2011,07,02,02,24,10.70
2011,07,02,02,25,10.70
2011,07,02,02,26,10.70
2011,07,02,02,27,10.70
2011,07,02,02,28,10.70
2011,07,02,02,29,10.70
2011,07,02,02,30,10.70
2011,07,02,02,31,10.70
2011,07,02,02,32,10.70
2011,07,02,02,33,10.70
2011,07,02,02,34,10.70
2011,07,02,02,35,10.70
2011,07,02,02,36,10.60
2011,07,02,02,37,10.60
2011,07,02,02,38,10.60
2011,07,02,02,39,10.60
2011,07,02,02,40,10.60
2011,07,02,02,41,10.60
2011,07,02,02,42,10.60
2011,07,02,02,43,10.60
2011,07,02,02,44,10.60
2011,07,02,02,45,10.50
2011,07,02,02,46,10.40
2011,07,02,02,47,10.40
2011,07,02,02,48,10.40
2011,07,02,02,49,10.40
2011,07,02,02,50,10.40
2011,07,02,02,51,10.40
2011,07,02,02,52,10.40
2011,07,02,02,53,10.40
2011,07,02,02,54,10.40
2011,07,02,02,55,10.40
2011,07,02,02,56,10.40
2011,07,02,02,57,10.40
2011,07,02,02,58,10.40
2011,07,02,02,59,10.40
2011,07,02,03,00,10.40
2011,07,02,03,01,10.40
2011,07,02,03,02,10.40
2011,07,02,03,03,10.40
2011,07,02,03,04,10.40
2011,07,02,03,05,10.40
2011,07,02,03,06,10.40
2011,07,02,03,07,10.40
2011,07,02,03,08,10.40
2011,07,02,03,09,10.30
2011,07,02,03,10,10.40
2011,07,02,03,11,10.30
2011,07,02,03,12,10.30
2011,07,02,03,13,10.30
2011,07,02,03,14,10.30
2011,07,02,03,15,10.30
2011,07,02,03,16,10.20
2011,07,02,03,17,10.20
2011,07,02,03,18,10.20
2011,07,02,03,19,10.20
2011,07,02,03,20,10.20
2011,07,02,03,21,10.20
2011,07,02,03,22,10.20
2011,07,02,03,23,10.20
2011,07,02,03,24,10.20
2011,07,02,03,25,10.10
2011,07,02,03,26,10.10
2011,07,02,03,27,10.10
2011,07,02,03,28,10.10
2011,07,02,03,29,10.10
2011,07,02,03,30,10.10
2011,07,02,03,31,10.10
2011,07,02,03,32,10.10
2011,07,02,03,33,10.10
2011,07,02,03,34,10.00
2011,07,02,03,35,9.90
2011,07,02,03,36,9.90
2011,07,02,03,37,9.90
2011,07,02,03,38,9.90
2011,07,02,03,39,9.90
2011,07,02,03,40,9.90
2011,07,02,03,41,9.90
2011,07,02,03,42,9.90
2011,07,02,03,43,9.80
2011,07,02,03,44,9.80
2011,07,02,03,45,9.80
2011,07,02,03,46,9.70
2011,07,02,03,47,9.70
2011,07,02,03,48,9.70
2011,07,02,03,49,9.70
2011,07,02,03,50,9.60
2011,07,02,03,51,9.60
2011,07,02,03,52,9.60
2011,07,02,03,53,9.60
2011,07,02,03,54,9.50
2011,07,02,03,55,9.50
2011,07,02,03,56,9.50
2011,07,02,03,57,9.50
2011,07,02,03,58,9.50
2011,07,02,03,59,9.50
2011,07,02,04,00,9.50
2011,07,02,04,01,9.50
2011,07,02,04,02,9.60
2011,07,02,04,03,9.60
2011,07,02,04,04,9.60
2011,07,02,04,05,9.60
2011,07,02,04,06,9.60
2011,07,02,04,07,9.60
2011,07,02,04,08,9.60
2011,07,02,04,09,9.60
2011,07,02,04,10,9.60
2011,07,02,04,11,9.60
2011,07,02,04,12,9.60
2011,07,02,04,13,9.50
2011,07,02,04,14,9.50
2011,07,02,04,15,9.50
2011,07,02,04,16,9.40
2011,07,02,04,17,9.40
2011,07,02,04,18,9.40
2011,07,02,04,19,9.40
2011,07,02,04,20,9.30
2011,07,02,04,21,9.30
2011,07,02,04,22,9.30
2011,07,02,04,23,9.30
2011,07,02,04,24,9.30
2011,07,02,04,25,9.20
2011,07,02,04,26,9.20
2011,07,02,04,27,9.20
2011,07,02,04,28,9.20
2011,07,02,04,29,9.20
2011,07,02,04,30,9.20
2011,07,02,04,31,9.20
2011,07,02,04,32,9.20
2011,07,02,04,33,9.10
2011,07,02,04,34,9.10
2011,07,02,04,35,9.00
2011,07,02,04,36,9.00
2011,07,02,04,37,9.00
2011,07,02,04,38,8.90
2011,07,02,04,39,8.90
2011,07,02,04,40,8.90
2011,07,02,04,41,8.90
2011,07,02,04,42,8.90
2011,07,02,04,43,8.90
2011,07,02,04,44,8.90
2011,07,02,04,45,8.90
2011,07,02,04,46,8.90
2011,07,02,04,47,9.00
2011,07,02,04,48,9.00
2011,07,02,04,49,9.00
2011,07,02,04,50,9.00
2011,07,02,04,51,9.00
2011,07,02,04,52,9.00
2011,07,02,04,53,9.00
2011,07,02,04,54,9.00
2011,07,02,04,55,9.00
2011,07,02,04,56,9.00
2011,07,02,04,57,9.10
2011,07,02,04,58,9.10
2011,07,02,04,59,9.10
2011,07,02,05,00,9.10
2011,07,02,05,01,9.10
2011,07,02,05,02,9.00
2011,07,02,05,03,9.00
2011,07,02,05,04,9.00
2011,07,02,05,05,9.00
2011,07,02,05,06,9.10
2011,07,02,05,07,9.10
2011,07,02,05,08,9.10
2011,07,02,05,09,9.20
2011,07,02,05,10,9.20
2011,07,02,05,11,9.20
2011,07,02,05,12,9.20
2011,07,02,05,13,9.20
2011,07,02,05,14,9.20
2011,07,02,05,15,9.10
2011,07,02,05,16,9.10
2011,07,02,05,17,9.10
2011,07,02,05,18,9.00
2011,07,02,05,19,9.00
2011,07,02,05,20,9.00
2011,07,02,05,21,9.00
2011,07,02,05,22,8.90
2011,07,02,05,23,8.90
2011,07,02,05,24,8.90
2011,07,02,05,25,8.90
2011,07,02,05,26,8.90
2011,07,02,05,27,8.90
2011,07,02,05,28,8.90
2011,07,02,05,29,8.90
2011,07,02,05,30,8.90
2011,07,02,05,31,8.90
2011,07,02,05,32,8.90
2011,07,02,05,33,8.80
2011,07,02,05,34,8.80
2011,07,02,05,35,8.80
2011,07,02,05,36,8.80
2011,07,02,05,37,8.80
2011,07,02,05,38,8.70
2011,07,02,05,39,8.70
2011,07,02,05,40,8.70
2011,07,02,05,41,8.70
2011,07,02,05,42,8.70
2011,07,02,05,43,8.70
2011,07,02,05,44,8.70
2011,07,02,05,45,8.70
2011,07,02,05,46,8.70
2011,07,02,05,47,8.70
2011,07,02,05,48,8.70
2011,07,02,05,49,8.70
2011,07,02,05,50,8.70
2011,07,02,05,51,8.70
2011,07,02,05,52,8.70
2011,07,02,05,53,8.70
2011,07,02,05,54,8.70
2011,07,02,05,55,8.80
2011,07,02,05,56,8.80
2011,07,02,05,57,8.80
2011,07,02,05,58,8.90
2011,07,02,05,59,8.90
2011,07,02,06,00,8.90
2011,07,02,06,01,9.00
2011,07,02,06,02,9.00
2011,07,02,06,03,9.00
2011,07,02,06,04,9.10
2011,07,02,06,05,9.10
2011,07,02,06,06,9.10
2011,07,02,06,07,9.20
2011,07,02,06,08,9.20
2011,07,02,06,09,9.20
2011,07,02,06,10,9.20
2011,07,02,06,11,9.20
2011,07,02,06,12,9.20
2011,07,02,06,13,9.20
2011,07,02,06,14,9.30
2011,07,02,06,15,9.30
2011,07,02,06,16,9.30
2011,07,02,06,17,9.30
2011,07,02,06,18,9.40
2011,07,02,06,19,9.40
2011,07,02,06,20,9.40
2011,07,02,06,21,9.40
2011,07,02,06,22,9.50
2011,07,02,06,23,9.50
2011,07,02,06,24,9.50
2011,07,02,06,25,9.50
2011,07,02,06,26,9.50
2011,07,02,06,27,9.60
2011,07,02,06,28,9.60
2011,07,02,06,29,9.60
2011,07,02,06,30,9.60
2011,07,02,06,31,9.70
2011,07,02,06,32,9.70
2011,07,02,06,33,9.80
2011,07,02,06,34,9.90
2011,07,02,06,35,9.90
2011,07,02,06,36,10.00
2011,07,02,06,37,10.10
2011,07,02,06,38,10.20
2011,07,02,06,39,10.30
2011,07,02,06,40,10.40
2011,07,02,06,41,10.50
2011,07,02,06,42,10.60
2011,07,02,06,43,10.60
2011,07,02,06,44,10.60
2011,07,02,06,45,10.60
2011,07,02,06,46,10.60
2011,07,02,06,47,10.60
2011,07,02,06,48,10.60
2011,07,02,06,49,10.70
2011,07,02,06,50,10.70
2011,07,02,06,51,10.70
2011,07,02,06,52,10.80
2011,07,02,06,53,10.90
2011,07,02,06,54,11.00
2011,07,02,06,55,11.10
2011,07,02,06,56,11.10
2011,07,02,06,57,11.20
2011,07,02,06,58,11.30
2011,07,02,06,59,11.30
2011,07,02,07,00,11.40
2011,07,02,07,01,11.40
2011,07,02,07,02,11.40
2011,07,02,07,03,11.50
2011,07,02,07,04,11.60
2011,07,02,07,05,11.60
2011,07,02,07,06,11.60
2011,07,02,07,07,11.60
2011,07,02,07,08,11.70
2011,07,02,07,09,11.70
2011,07,02,07,10,11.70
2011,07,02,07,11,11.70
2011,07,02,07,12,11.70
2011,07,02,07,13,11.60
2011,07,02,07,14,11.60
2011,07,02,07,15,11.70
2011,07,02,07,16,11.70
2011,07,02,07,17,11.70
2011,07,02,07,18,11.80
2011,07,02,07,19,11.80
2011,07,02,07,20,11.80
2011,07,02,07,21,11.80
2011,07,02,07,22,11.90
2011,07,02,07,23,11.90
2011,07,02,07,24,12.00
2011,07,02,07,25,12.00
2011,07,02,07,26,12.00
2011,07,02,07,27,12.10
2011,07,02,07,28,12.10
2011,07,02,07,29,12.20
2011,07,02,07,30,12.20
2011,07,02,07,31,12.20
2011,07,02,07,32,12.30
2011,07,02,07,33,12.30
2011,07,02,07,34,12.30
2011,07,02,07,35,12.30
2011,07,02,07,36,12.40
2011,07,02,07,37,12.40
2011,07,02,07,38,12.50
2011,07,02,07,39,12.50
2011,07,02,07,40,12.60
2011,07,02,07,41,12.60
2011,07,02,07,42,12.70
2011,07,02,07,43,12.80
2011,07,02,07,44,12.80
2011,07,02,07,45,12.80
2011,07,02,07,46,12.90
2011,07,02,07,47,13.00
2011,07,02,07,48,13.10
2011,07,02,07,49,13.10
2011,07,02,07,50,13.20
2011,07,02,07,51,13.30
2011,07,02,07,52,13.40
2011,07,02,07,53,13.40
2011,07,02,07,54,13.50
2011,07,02,07,55,13.60
2011,07,02,07,56,13.70
2011,07,02,07,57,13.80
2011,07,02,07,58,13.90
2011,07,02,07,59,14.00
2011,07,02,08,00,14.10
2011,07,02,08,01,14.30
2011,07,02,08,02,14.40
2011,07,02,08,03,14.60
2011,07,02,08,04,14.70
2011,07,02,08,05,14.80
2011,07,02,08,06,14.90
2011,07,02,08,07,15.10
2011,07,02,08,08,15.20
2011,07,02,08,09,15.30
2011,07,02,08,10,15.30
2011,07,02,08,11,15.40
2011,07,02,08,12,15.50
2011,07,02,08,13,15.60
2011,07,02,08,14,15.60
2011,07,02,08,15,15.60
2011,07,02,08,16,15.70
2011,07,02,08,17,15.80
2011,07,02,08,18,15.80
2011,07,02,08,19,15.80
2011,07,02,08,20,15.70
2011,07,02,08,21,15.70
2011,07,02,08,22,15.70
2011,07,02,08,23,15.80
2011,07,02,08,24,15.80
2011,07,02,08,25,15.80
2011,07,02,08,26,15.90
2011,07,02,08,27,16.00
2011,07,02,08,28,16.10
2011,07,02,08,29,16.20
2011,07,02,08,30,16.30
2011,07,02,08,31,16.40
2011,07,02,08,32,16.40
2011,07,02,08,33,16.40
2011,07,02,08,34,16.30
2011,07,02,08,35,16.30
2011,07,02,08,36,16.30
2011,07,02,08,37,16.40
2011,07,02,08,38,16.40
2011,07,02,08,39,16.40
2011,07,02,08,40,16.40
2011,07,02,08,41,16.50
2011,07,02,08,42,16.60
2011,07,02,08,43,16.60
2011,07,02,08,44,16.60
2011,07,02,08,45,16.70
2011,07,02,08,46,16.70
2011,07,02,08,47,16.70
2011,07,02,08,48,16.70
2011,07,02,08,49,16.70
2011,07,02,08,50,16.70
2011,07,02,08,51,16.70
2011,07,02,08,52,16.80
2011,07,02,08,53,16.90
2011,07,02,08,54,16.90
2011,07,02,08,55,17.00
2011,07,02,08,56,17.00
2011,07,02,08,57,17.10
2011,07,02,08,58,17.10
2011,07,02,08,59,17.10
2011,07,02,09,00,17.10
2011,07,02,09,01,17.10
2011,07,02,09,02,17.20
2011,07,02,09,03,17.10
2011,07,02,09,04,17.00
2011,07,02,09,05,17.00
2011,07,02,09,06,17.00
2011,07,02,09,07,17.00
2011,07,02,09,08,17.10
2011,07,02,09,09,17.20
2011,07,02,09,10,17.30
2011,07,02,09,11,17.30
2011,07,02,09,12,17.30
2011,07,02,09,13,17.40
2011,07,02,09,14,17.40
2011,07,02,09,15,17.40
2011,07,02,09,16,17.40
2011,07,02,09,17,17.40
2011,07,02,09,18,17.50
2011,07,02,09,19,17.50
2011,07,02,09,20,17.50
2011,07,02,09,21,17.40
2011,07,02,09,22,17.30
2011,07,02,09,23,17.20
2011,07,02,09,24,17.20
2011,07,02,09,25,17.30
2011,07,02,09,26,17.50
2011,07,02,09,27,17.50
2011,07,02,09,28,17.60
2011,07,02,09,29,17.70
2011,07,02,09,30,17.70
2011,07,02,09,31,17.70
2011,07,02,09,32,17.80
2011,07,02,09,33,17.80
2011,07,02,09,34,17.80
2011,07,02,09,35,17.80
2011,07,02,09,36,17.80
2011,07,02,09,37,17.80
2011,07,02,09,38,17.80
2011,07,02,09,39,17.80
2011,07,02,09,40,17.70
2011,07,02,09,41,17.80
2011,07,02,09,42,17.80
2011,07,02,09,43,17.80
2011,07,02,09,44,17.80
2011,07,02,09,45,17.90
2011,07,02,09,46,17.90
2011,07,02,09,47,17.90
2011,07,02,09,48,17.80
2011,07,02,09,49,17.80
2011,07,02,09,50,17.80
2011,07,02,09,51,17.70
2011,07,02,09,52,17.70
2011,07,02,09,53,17.60
2011,07,02,09,54,17.50
2011,07,02,09,55,17.60
2011,07,02,09,56,17.60
2011,07,02,09,57,17.70
2011,07,02,09,58,17.70
2011,07,02,09,59,17.70
2011,07,02,10,00,17.70
2011,07,02,10,01,17.70
2011,07,02,10,02,17.80
2011,07,02,10,03,17.90
2011,07,02,10,04,17.90
2011,07,02,10,05,17.90
2011,07,02,10,06,17.90
2011,07,02,10,07,17.90
2011,07,02,10,08,18.00
2011,07,02,10,09,18.10
2011,07,02,10,10,18.20
2011,07,02,10,11,18.20
2011,07,02,10,12,18.20
2011,07,02,10,13,18.20
2011,07,02,10,14,18.20
2011,07,02,10,15,18.20
2011,07,02,10,16,18.30
2011,07,02,10,17,18.30
2011,07,02,10,18,18.40
2011,07,02,10,19,18.40
2011,07,02,10,20,18.50
2011,07,02,10,21,18.50
2011,07,02,10,22,18.60
2011,07,02,10,23,18.50
2011,07,02,10,24,18.50
2011,07,02,10,25,18.30
2011,07,02,10,26,18.20
2011,07,02,10,27,18.10
2011,07,02,10,28,18.10
2011,07,02,10,29,18.10
2011,07,02,10,30,18.00
2011,07,02,10,31,17.90
2011,07,02,10,32,17.90
2011,07,02,10,33,17.90
2011,07,02,10,34,18.00
2011,07,02,10,35,18.10
2011,07,02,10,36,18.10
2011,07,02,10,37,18.20
2011,07,02,10,38,18.20
2011,07,02,10,39,18.30
2011,07,02,10,40,18.30
2011,07,02,10,41,18.40
2011,07,02,10,42,18.50
2011,07,02,10,43,18.50
2011,07,02,10,44,18.60
2011,07,02,10,45,18.60
2011,07,02,10,46,18.70
2011,07,02,10,47,18.70
2011,07,02,10,48,18.70
2011,07,02,10,49,18.80
2011,07,02,10,50,18.70
2011,07,02,10,51,18.70
2011,07,02,10,52,18.60
2011,07,02,10,53,18.60
2011,07,02,10,54,18.60
2011,07,02,10,55,18.60
2011,07,02,10,56,18.60
2011,07,02,10,57,18.60
2011,07,02,10,58,18.60
2011,07,02,10,59,18.60
2011,07,02,11,00,18.50
2011,07,02,11,01,18.40
2011,07,02,11,02,18.40
2011,07,02,11,03,18.40
2011,07,02,11,04,18.40
2011,07,02,11,05,18.40
2011,07,02,11,06,18.40
2011,07,02,11,07,18.40
2011,07,02,11,08,18.40
2011,07,02,11,09,18.40
2011,07,02,11,10,18.50
2011,07,02,11,11,18.60
2011,07,02,11,12,18.60
2011,07,02,11,13,18.70
2011,07,02,11,14,18.90
2011,07,02,11,15,18.90
2011,07,02,11,16,19.00
2011,07,02,11,17,19.10
2011,07,02,11,18,19.20
2011,07,02,11,19,19.30
2011,07,02,11,20,19.30
2011,07,02,11,21,19.30
2011,07,02,11,22,19.40
2011,07,02,11,23,19.30
2011,07,02,11,24,19.20
2011,07,02,11,25,19.10
2011,07,02,11,26,19.00
2011,07,02,11,27,18.90
2011,07,02,11,28,18.70
2011,07,02,11,29,18.70
2011,07,02,11,30,18.60
2011,07,02,11,31,18.50
2011,07,02,11,32,18.50
2011,07,02,11,33,18.60
2011,07,02,11,34,18.60
2011,07,02,11,35,18.50
2011,07,02,11,36,18.50
2011,07,02,11,37,18.50
2011,07,02,11,38,18.60
2011,07,02,11,39,18.60
2011,07,02,11,40,18.60
2011,07,02,11,41,18.60
2011,07,02,11,42,18.70
2011,07,02,11,43,18.80
2011,07,02,11,44,18.80
2011,07,02,11,45,18.80
2011,07,02,11,46,18.80
2011,07,02,11,47,18.80
2011,07,02,11,48,18.70
2011,07,02,11,49,18.60
2011,07,02,11,50,18.60
2011,07,02,11,51,18.60
2011,07,02,11,52,18.70
2011,07,02,11,53,18.80
2011,07,02,11,54,18.80
2011,07,02,11,55,18.70
2011,07,02,11,56,18.70
2011,07,02,11,57,18.60
2011,07,02,11,58,18.50
2011,07,02,11,59,18.40
2011,07,02,12,00,18.30
2011,07,02,12,01,18.20
2011,07,02,12,02,18.20
2011,07,02,12,03,18.30
2011,07,02,12,04,18.40
2011,07,02,12,05,18.40
2011,07,02,12,06,18.40
2011,07,02,12,07,18.50
2011,07,02,12,08,18.50
2011,07,02,12,09,18.60
2011,07,02,12,10,18.60
2011,07,02,12,11,18.60
2011,07,02,12,12,18.60
2011,07,02,12,13,18.50
2011,07,02,12,14,18.50
2011,07,02,12,15,18.40
2011,07,02,12,16,18.30
2011,07,02,12,17,18.40
2011,07,02,12,18,18.40
2011,07,02,12,19,18.50
2011,07,02,12,20,18.50
2011,07,02,12,21,18.50
2011,07,02,12,22,18.50
2011,07,02,12,23,18.50
2011,07,02,12,24,18.50
2011,07,02,12,25,18.50
2011,07,02,12,26,18.50
2011,07,02,12,27,18.60
2011,07,02,12,28,18.70
2011,07,02,12,29,18.70
2011,07,02,12,30,18.70
2011,07,02,12,31,18.90
2011,07,02,12,32,18.90
2011,07,02,12,33,18.90
2011,07,02,12,34,18.90
2011,07,02,12,35,18.90
2011,07,02,12,36,18.90
2011,07,02,12,37,18.90
2011,07,02,12,38,18.90
2011,07,02,12,39,18.90
2011,07,02,12,40,19.00
2011,07,02,12,41,19.00
2011,07,02,12,42,19.00
2011,07,02,12,43,19.00
2011,07,02,12,44,18.90
2011,07,02,12,45,18.90
2011,07,02,12,46,18.90
2011,07,02,12,47,18.90
2011,07,02,12,48,18.90
2011,07,02,12,49,18.90
2011,07,02,12,50,18.90
2011,07,02,12,51,18.90
2011,07,02,12,52,18.90
2011,07,02,12,53,18.90
2011,07,02,12,54,18.90
2011,07,02,12,55,18.90
2011,07,02,12,56,19.00
2011,07,02,12,57,19.10
2011,07,02,12,58,19.20
2011,07,02,12,59,19.20
2011,07,02,13,00,19.10
2011,07,02,13,01,19.10
2011,07,02,13,02,19.10
2011,07,02,13,03,19.10
2011,07,02,13,04,19.10
2011,07,02,13,05,19.20
2011,07,02,13,06,19.20
2011,07,02,13,07,19.20
2011,07,02,13,08,19.10
2011,07,02,13,09,19.10
2011,07,02,13,10,19.00
2011,07,02,13,11,19.00
2011,07,02,13,12,18.90
2011,07,02,13,13,18.90
2011,07,02,13,14,18.80
2011,07,02,13,15,18.80
2011,07,02,13,16,18.80
2011,07,02,13,17,18.90
2011,07,02,13,18,18.90
2011,07,02,13,19,18.80
2011,07,02,13,20,18.80
2011,07,02,13,21,18.70
2011,07,02,13,22,18.80
2011,07,02,13,23,18.80
2011,07,02,13,24,18.90
2011,07,02,13,25,18.80
2011,07,02,13,26,18.70
2011,07,02,13,27,18.70
2011,07,02,13,28,18.70
2011,07,02,13,29,18.70
2011,07,02,13,30,18.80
2011,07,02,13,31,19.00
2011,07,02,13,32,19.10
2011,07,02,13,33,19.10
2011,07,02,13,34,19.10
2011,07,02,13,35,19.10
2011,07,02,13,36,19.10
2011,07,02,13,37,18.90
2011,07,02,13,38,18.90
2011,07,02,13,39,18.90
2011,07,02,13,40,18.90
2011,07,02,13,41,18.90
2011,07,02,13,42,19.00
2011,07,02,13,43,19.10
2011,07,02,13,44,19.10
2011,07,02,13,45,19.20
2011,07,02,13,46,19.20
2011,07,02,13,47,19.20
2011,07,02,13,48,19.30
2011,07,02,13,49,19.50
2011,07,02,13,50,19.50
2011,07,02,13,51,19.40
2011,07,02,13,52,19.40
2011,07,02,13,53,19.50
2011,07,02,13,54,19.60
2011,07,02,13,55,19.60
2011,07,02,13,56,19.60
2011,07,02,13,57,19.50
2011,07,02,13,58,19.40
2011,07,02,13,59,19.30
2011,07,02,14,00,19.30
2011,07,02,14,01,19.30
2011,07,02,14,02,19.30
2011,07,02,14,03,19.10
2011,07,02,14,04,19.10
2011,07,02,14,05,19.10
2011,07,02,14,06,19.20
2011,07,02,14,07,19.20
2011,07,02,14,08,19.10
2011,07,02,14,09,19.10
2011,07,02,14,10,19.10
2011,07,02,14,11,19.00
2011,07,02,14,12,18.90
2011,07,02,14,13,18.80
2011,07,02,14,14,18.70
2011,07,02,14,15,18.60
2011,07,02,14,16,18.60
2011,07,02,14,17,18.60
2011,07,02,14,18,18.70
2011,07,02,14,19,18.70
2011,07,02,14,20,18.90
2011,07,02,14,21,18.90
2011,07,02,14,22,18.90
2011,07,02,14,23,18.90
2011,07,02,14,24,19.10
2011,07,02,14,25,19.30
2011,07,02,14,26,19.40
2011,07,02,14,27,19.60
2011,07,02,14,28,19.80
2011,07,02,14,29,19.90
2011,07,02,14,30,19.90
2011,07,02,14,31,19.90
2011,07,02,14,32,19.90
2011,07,02,14,33,19.90
2011,07,02,14,34,19.90
2011,07,02,14,35,19.90
2011,07,02,14,36,19.90
2011,07,02,14,37,19.90
2011,07,02,14,38,19.90
2011,07,02,14,39,19.90
2011,07,02,14,40,20.10
2011,07,02,14,41,20.20
2011,07,02,14,42,20.30
2011,07,02,14,43,20.40
2011,07,02,14,44,20.50
2011,07,02,14,45,20.50
2011,07,02,14,46,20.70
2011,07,02,14,47,20.70
2011,07,02,14,48,20.80
2011,07,02,14,49,20.80
2011,07,02,14,50,20.90
2011,07,02,14,51,21.00
2011,07,02,14,52,21.00
2011,07,02,14,53,21.00
2011,07,02,14,54,21.00
2011,07,02,14,55,21.10
2011,07,02,14,56,21.20
2011,07,02,14,57,21.20
2011,07,02,14,58,21.20
2011,07,02,14,59,21.20
2011,07,02,15,00,21.20
2011,07,02,15,01,21.20
2011,07,02,15,02,21.30
2011,07,02,15,03,21.30
2011,07,02,15,04,21.50
2011,07,02,15,05,21.60
2011,07,02,15,06,21.80
2011,07,02,15,07,21.90
2011,07,02,15,08,22.10
2011,07,02,15,09,22.20
2011,07,02,15,10,22.30
2011,07,02,15,11,22.30
2011,07,02,15,12,22.30
2011,07,02,15,13,22.20
2011,07,02,15,14,22.20
2011,07,02,15,15,22.30
2011,07,02,15,16,22.40
2011,07,02,15,17,22.60
2011,07,02,15,18,22.70
2011,07,02,15,19,23.00
2011,07,02,15,20,23.20
2011,07,02,15,21,23.40
2011,07,02,15,22,23.50
2011,07,02,15,23,23.60
2011,07,02,15,24,23.70
2011,07,02,15,25,23.80
2011,07,02,15,26,23.90
2011,07,02,15,27,24.10
2011,07,02,15,28,24.10
2011,07,02,15,29,24.10
2011,07,02,15,30,24.10
2011,07,02,15,31,24.10
2011,07,02,15,32,24.10
2011,07,02,15,33,24.20
2011,07,02,15,34,24.30
2011,07,02,15,35,24.40
2011,07,02,15,36,24.20
2011,07,02,15,37,24.20
2011,07,02,15,38,24.20
2011,07,02,15,39,24.20
2011,07,02,15,40,24.10
2011,07,02,15,41,24.10
2011,07,02,15,42,24.10
2011,07,02,15,43,24.00
2011,07,02,15,44,24.10
2011,07,02,15,45,24.10
2011,07,02,15,46,24.20
2011,07,02,15,47,24.30
2011,07,02,15,48,24.20
2011,07,02,15,49,24.10
2011,07,02,15,50,23.90
2011,07,02,15,51,24.00
2011,07,02,15,52,24.10
2011,07,02,15,53,23.90
2011,07,02,15,54,23.80
2011,07,02,15,55,23.70
2011,07,02,15,56,23.60
2011,07,02,15,57,23.50
2011,07,02,15,58,23.40
2011,07,02,15,59,23.40
2011,07,02,16,00,23.50
2011,07,02,16,01,23.70
2011,07,02,16,02,23.80
2011,07,02,16,03,23.80
2011,07,02,16,04,23.70
2011,07,02,16,05,23.70
2011,07,02,16,06,23.70
2011,07,02,16,07,23.70
2011,07,02,16,08,23.70
2011,07,02,16,09,23.70
2011,07,02,16,10,23.80
2011,07,02,16,11,23.90
2011,07,02,16,12,23.90
2011,07,02,16,13,23.90
2011,07,02,16,14,23.80
2011,07,02,16,15,23.70
2011,07,02,16,16,23.70
2011,07,02,16,17,23.60
2011,07,02,16,18,23.60
2011,07,02,16,19,23.70
2011,07,02,16,20,23.80
2011,07,02,16,21,23.80
2011,07,02,16,22,23.80
2011,07,02,16,23,24.00
2011,07,02,16,24,24.10
2011,07,02,16,25,24.10
2011,07,02,16,26,24.10
2011,07,02,16,27,24.00
2011,07,02,16,28,23.80
2011,07,02,16,29,23.80
2011,07,02,16,30,23.70
2011,07,02,16,31,23.80
2011,07,02,16,32,23.80
2011,07,02,16,33,23.90
2011,07,02,16,34,24.00
2011,07,02,16,35,24.10
2011,07,02,16,36,24.10
2011,07,02,16,37,24.10
2011,07,02,16,38,24.20
2011,07,02,16,39,24.30
2011,07,02,16,40,24.40
2011,07,02,16,41,24.50
2011,07,02,16,42,24.40
2011,07,02,16,43,24.20
2011,07,02,16,44,24.10
2011,07,02,16,45,24.10
2011,07,02,16,46,23.90
2011,07,02,16,47,23.90
2011,07,02,16,48,23.80
2011,07,02,16,49,23.80
2011,07,02,16,50,23.80
2011,07,02,16,51,23.70
2011,07,02,16,52,23.70
2011,07,02,16,53,23.70
2011,07,02,16,54,23.70
2011,07,02,16,55,23.70
2011,07,02,16,56,23.70
2011,07,02,16,57,23.80
2011,07,02,16,58,23.90
2011,07,02,16,59,24.00
2011,07,02,17,00,24.00
2011,07,02,17,01,23.90
2011,07,02,17,02,23.80
2011,07,02,17,03,23.80
2011,07,02,17,04,23.70
2011,07,02,17,05,23.70
2011,07,02,17,06,23.70
2011,07,02,17,07,23.70
2011,07,02,17,08,23.70
2011,07,02,17,09,23.70
2011,07,02,17,10,23.70
2011,07,02,17,11,23.70
2011,07,02,17,12,23.70
2011,07,02,17,13,23.70
2011,07,02,17,14,23.60
2011,07,02,17,15,23.50
2011,07,02,17,16,23.40
2011,07,02,17,17,23.50
2011,07,02,17,18,23.50
2011,07,02,17,19,23.40
2011,07,02,17,20,23.30
2011,07,02,17,21,23.20
2011,07,02,17,22,23.10
2011,07,02,17,23,23.10
2011,07,02,17,24,23.10
2011,07,02,17,25,23.10
2011,07,02,17,26,23.10
2011,07,02,17,27,23.10